Time,TemperatureF,DewpointF,PressureIn,WindDirection,WindDirectionDegrees,WindSpeedMPH,WindSpeedGustMPH,Humidity,HourlyPrecipIn,Conditions,Clouds,dailyrainin,SolarRadiationWatts/m^2,SoftwareType,DateUTC
2013-02-13 00:22:00,37.0,24.0,-100.00,SE,143,0.0,2.0,60,0.00,,,0.00,0.000000,,2013-02-13 05:22:00,
2013-02-13 00:32:00,37.0,24.0,-100.00,SE,143,0.0,2.0,60,0.00,,,0.00,0.000000,,2013-02-13 05:32:00,
2013-02-13 00:42:00,37.0,24.0,-100.00,SE,143,0.0,2.0,60,0.00,,,0.00,0.000000,,2013-02-13 05:42:00,
2013-02-13 00:52:00,37.0,24.0,-100.00,SE,143,0.0,2.0,60,0.00,,,0.00,0.000000,,2013-02-13 05:52:00,
2013-02-13 01:11:00,36.0,26.0,-100.00,WNW,287,1.0,3.0,66,0.00,,,0.00,0.000000,,2013-02-13 06:11:00,
2013-02-13 01:22:00,36.0,26.0,-100.00,WNW,287,1.0,3.0,66,0.00,,,0.00,0.000000,,2013-02-13 06:22:00,
2013-02-13 01:32:00,36.0,26.0,-100.00,WNW,287,1.0,3.0,66,0.00,,,0.00,0.000000,,2013-02-13 06:32:00,
2013-02-13 01:42:00,36.0,26.0,-100.00,WNW,287,1.0,3.0,66,0.00,,,0.00,0.000000,,2013-02-13 06:42:00,
2013-02-13 01:52:00,36.0,26.0,-100.00,WNW,287,1.0,3.0,66,0.00,,,0.00,0.000000,,2013-02-13 06:52:00,
2013-02-13 02:22:00,37.0,25.0,-100.00,NW,326,3.0,5.0,62,0.00,,,-99.99,0.000000,,2013-02-13 07:22:00,
2013-02-13 02:32:00,37.0,25.0,-100.00,NW,326,3.0,5.0,62,0.00,,,-99.99,0.000000,,2013-02-13 07:32:00,
2013-02-13 02:42:00,37.0,25.0,-100.00,NW,326,3.0,5.0,62,0.00,,,-99.99,0.000000,,2013-02-13 07:42:00,
2013-02-13 02:51:00,37.0,25.0,-100.00,NW,326,3.0,5.0,62,0.00,,,-99.99,0.000000,,2013-02-13 07:51:00,
2013-02-13 03:22:00,36.0,25.0,-100.00,NNW,341,3.0,5.0,64,0.00,,,0.00,0.000000,,2013-02-13 08:22:00,
2013-02-13 03:32:00,36.0,25.0,-100.00,NNW,341,3.0,5.0,64,0.00,,,0.00,0.000000,,2013-02-13 08:32:00,
2013-02-13 03:43:00,36.0,25.0,-100.00,NNW,341,3.0,5.0,64,0.00,,,0.00,0.000000,,2013-02-13 08:43:00,
2013-02-13 03:52:00,36.0,25.0,-100.00,NNW,341,3.0,5.0,64,0.00,,,0.00,0.000000,,2013-02-13 08:52:00,
2013-02-13 04:21:00,36.0,25.0,-100.00,NNE,13,4.0,8.0,65,0.00,,,0.00,0.000000,,2013-02-13 09:21:00,
2013-02-13 04:32:00,36.0,25.0,-100.00,NNE,13,4.0,8.0,65,0.00,,,0.00,0.000000,,2013-02-13 09:32:00,
2013-02-13 04:42:00,36.0,25.0,-100.00,NNE,13,4.0,8.0,65,0.00,,,0.00,0.000000,,2013-02-13 09:42:00,
2013-02-13 04:52:00,36.0,25.0,-100.00,NNE,13,4.0,8.0,65,0.00,,,0.00,0.000000,,2013-02-13 09:52:00,
2013-02-13 05:22:00,35.0,27.0,-100.00,NNE,14,5.0,9.0,73,0.00,,,0.00,0.000000,,2013-02-13 10:22:00,
2013-02-13 05:32:00,35.0,27.0,-100.00,NNE,14,5.0,9.0,73,0.00,,,0.00,0.000000,,2013-02-13 10:32:00,
2013-02-13 05:42:00,35.0,27.0,-100.00,NNE,14,5.0,9.0,73,0.00,,,0.00,0.000000,,2013-02-13 10:42:00,
2013-02-13 05:51:00,35.0,27.0,-100.00,NNE,14,5.0,9.0,73,0.00,,,0.00,0.000000,,2013-02-13 10:51:00,
2013-02-13 06:22:00,34.0,28.0,-100.00,NNE,22,5.0,9.0,79,0.00,,,0.00,0.000000,,2013-02-13 11:22:00,
2013-02-13 06:32:00,34.0,28.0,-100.00,NNE,22,5.0,9.0,79,0.00,,,0.00,0.000000,,2013-02-13 11:32:00,
2013-02-13 06:42:00,34.0,28.0,-100.00,NNE,22,5.0,9.0,79,0.00,,,0.00,0.000000,,2013-02-13 11:42:00,
2013-02-13 06:52:00,34.0,28.0,-100.00,NNE,22,5.0,9.0,79,0.00,,,0.00,0.000000,,2013-02-13 11:52:00,
2013-02-13 07:22:00,33.0,28.0,-100.00,NE,43,4.0,9.0,81,0.00,,,0.00,0.000000,,2013-02-13 12:22:00,
2013-02-13 07:32:00,33.0,28.0,-100.00,NE,43,4.0,9.0,81,0.00,,,0.00,0.000000,,2013-02-13 12:32:00,
2013-02-13 07:42:00,33.0,28.0,-100.00,NE,43,4.0,9.0,81,0.00,,,0.00,0.000000,,2013-02-13 12:42:00,
2013-02-13 07:52:00,33.0,28.0,-100.00,NE,43,4.0,9.0,81,0.00,,,0.00,0.000000,,2013-02-13 12:52:00,
2013-02-13 08:21:00,33.0,28.0,-100.00,NNE,18,4.0,10.0,82,0.00,,,0.00,1.000000,,2013-02-13 13:21:00,
2013-02-13 08:32:00,33.0,28.0,-100.00,NNE,18,4.0,10.0,82,0.00,,,0.00,1.000000,,2013-02-13 13:32:00,
2013-02-13 08:42:00,33.0,28.0,-100.00,NNE,18,4.0,10.0,82,0.00,,,0.00,1.000000,,2013-02-13 13:42:00,
2013-02-13 08:51:00,33.0,28.0,-100.00,NNE,18,4.0,10.0,82,0.00,,,0.00,1.000000,,2013-02-13 13:51:00,
2013-02-13 09:22:00,33.0,28.0,-100.00,WNW,284,2.0,6.0,83,0.00,,,0.00,14.000000,,2013-02-13 14:22:00,
2013-02-13 09:32:00,33.0,28.0,-100.00,WNW,284,2.0,6.0,83,0.00,,,0.00,14.000000,,2013-02-13 14:32:00,
2013-02-13 09:42:00,33.0,28.0,-100.00,WNW,284,2.0,6.0,83,0.00,,,0.00,14.000000,,2013-02-13 14:42:00,
2013-02-13 09:52:00,33.0,28.0,-100.00,WNW,284,2.0,6.0,83,0.00,,,0.00,14.000000,,2013-02-13 14:52:00,
2013-02-13 10:21:00,33.0,28.0,-100.00,NW,315,6.0,10.0,83,0.00,,,0.00,38.000000,,2013-02-13 15:21:00,
2013-02-13 10:32:00,33.0,28.0,-100.00,NW,315,6.0,10.0,83,0.00,,,0.00,38.000000,,2013-02-13 15:32:00,
2013-02-13 10:42:00,33.0,28.0,-100.00,NW,315,6.0,10.0,83,0.00,,,0.00,38.000000,,2013-02-13 15:42:00,
2013-02-13 10:52:00,33.0,28.0,-100.00,NW,315,6.0,10.0,83,0.00,,,0.00,38.000000,,2013-02-13 15:52:00,
2013-02-13 11:12:00,31.0,29.0,-100.00,NNW,333,5.0,12.0,92,0.00,,,0.00,60.000000,,2013-02-13 16:12:00,
2013-02-13 11:21:00,31.0,29.0,-100.00,NNW,333,5.0,12.0,92,0.00,,,0.00,60.000000,,2013-02-13 16:21:00,
2013-02-13 11:32:00,31.0,29.0,-100.00,NNW,333,5.0,12.0,92,0.00,,,0.00,60.000000,,2013-02-13 16:32:00,
2013-02-13 11:42:00,31.0,29.0,-100.00,NNW,333,5.0,12.0,92,0.00,,,0.00,60.000000,,2013-02-13 16:42:00,
2013-02-13 11:51:00,31.0,29.0,-100.00,NNW,333,5.0,12.0,92,0.00,,,0.00,60.000000,,2013-02-13 16:51:00,
2013-02-13 12:21:00,31.0,29.0,-100.00,NW,317,5.0,10.0,93,0.00,,,0.00,62.000000,,2013-02-13 17:21:00,
2013-02-13 12:32:00,31.0,29.0,-100.00,NW,317,5.0,10.0,93,0.00,,,0.00,62.000000,,2013-02-13 17:32:00,
2013-02-13 12:42:00,31.0,29.0,-100.00,NW,317,5.0,10.0,93,0.00,,,0.00,62.000000,,2013-02-13 17:42:00,
2013-02-13 12:52:00,31.0,29.0,-100.00,NW,317,5.0,10.0,93,0.00,,,0.00,62.000000,,2013-02-13 17:52:00,
2013-02-13 13:23:00,31.0,29.0,-100.00,NW,305,4.0,8.0,94,0.01,,,0.01,45.000000,,2013-02-13 18:23:00,
2013-02-13 13:32:00,31.0,29.0,-100.00,NW,305,4.0,8.0,94,0.01,,,0.01,45.000000,,2013-02-13 18:32:00,
2013-02-13 13:42:00,31.0,29.0,-100.00,NW,305,4.0,8.0,94,0.01,,,0.01,45.000000,,2013-02-13 18:42:00,
2013-02-13 13:52:00,31.0,29.0,-100.00,NW,305,4.0,8.0,94,0.01,,,0.01,45.000000,,2013-02-13 18:52:00,
2013-02-13 14:21:00,33.0,30.0,-100.00,West,266,3.0,6.0,89,0.06,,,0.07,97.000000,,2013-02-13 19:21:00,
2013-02-13 14:32:00,33.0,30.0,-100.00,West,266,3.0,6.0,89,0.06,,,0.07,97.000000,,2013-02-13 19:32:00,
2013-02-13 14:42:00,33.0,30.0,-100.00,West,266,3.0,6.0,89,0.06,,,0.07,97.000000,,2013-02-13 19:42:00,
2013-02-13 14:51:00,33.0,30.0,-100.00,West,266,3.0,6.0,89,0.06,,,0.07,97.000000,,2013-02-13 19:51:00,
2013-02-13 15:22:00,33.0,31.0,-100.00,West,277,3.0,7.0,93,0.00,,,0.07,105.000000,,2013-02-13 20:22:00,
2013-02-13 15:32:00,33.0,31.0,-100.00,West,277,3.0,7.0,93,0.00,,,0.07,105.000000,,2013-02-13 20:32:00,
2013-02-13 15:42:00,33.0,31.0,-100.00,West,277,3.0,7.0,93,0.00,,,0.07,105.000000,,2013-02-13 20:42:00,
2013-02-13 15:52:00,33.0,31.0,-100.00,West,277,3.0,7.0,93,0.00,,,0.07,105.000000,,2013-02-13 20:52:00,
2013-02-13 16:21:00,33.0,31.0,-100.00,West,261,3.0,9.0,94,0.00,,,0.07,53.000000,,2013-02-13 21:21:00,
2013-02-13 16:32:00,33.0,31.0,-100.00,West,261,3.0,9.0,94,0.00,,,0.07,53.000000,,2013-02-13 21:32:00,
2013-02-13 16:42:00,33.0,31.0,-100.00,West,261,3.0,9.0,94,0.00,,,0.07,53.000000,,2013-02-13 21:42:00,
2013-02-13 16:52:00,33.0,31.0,-100.00,West,261,3.0,9.0,94,0.00,,,0.07,53.000000,,2013-02-13 21:52:00,
2013-02-13 17:21:00,37.0,32.0,-100.00,WSW,238,4.0,8.0,82,0.00,,,0.07,127.000000,,2013-02-13 22:21:00,
2013-02-13 17:32:00,37.0,32.0,-100.00,WSW,238,4.0,8.0,82,0.00,,,0.07,127.000000,,2013-02-13 22:32:00,
2013-02-13 17:42:00,37.0,32.0,-100.00,WSW,238,4.0,8.0,82,0.00,,,0.07,127.000000,,2013-02-13 22:42:00,
2013-02-13 17:51:00,37.0,32.0,-100.00,WSW,238,4.0,8.0,82,0.00,,,0.07,127.000000,,2013-02-13 22:51:00,
2013-02-13 18:22:00,35.0,30.0,-100.00,WSW,241,3.0,7.0,83,0.00,,,-99.99,52.000000,,2013-02-13 23:22:00,
2013-02-13 18:32:00,35.0,30.0,-100.00,WSW,241,3.0,7.0,83,0.00,,,-99.99,52.000000,,2013-02-13 23:32:00,
2013-02-13 18:42:00,35.0,30.0,-100.00,WSW,241,3.0,7.0,83,0.00,,,-99.99,52.000000,,2013-02-13 23:42:00,
2013-02-13 18:52:00,35.0,30.0,-100.00,WSW,241,3.0,7.0,83,0.00,,,-99.99,52.000000,,2013-02-13 23:52:00,
2013-02-13 19:22:00,32.0,29.0,-100.00,SW,214,2.0,4.0,90,0.00,,,0.07,2.000000,,2013-02-14 00:22:00,
2013-02-13 19:32:00,32.0,29.0,-100.00,SW,214,2.0,4.0,90,0.00,,,0.07,2.000000,,2013-02-14 00:32:00,
2013-02-13 19:42:00,32.0,29.0,-100.00,SW,214,2.0,4.0,90,0.00,,,0.07,2.000000,,2013-02-14 00:42:00,
2013-02-13 19:52:00,32.0,29.0,-100.00,SW,214,2.0,4.0,90,0.00,,,0.07,2.000000,,2013-02-14 00:52:00,
2013-02-13 20:21:00,30.0,28.0,-100.00,SW,221,2.0,4.0,92,0.00,,,0.07,0.000000,,2013-02-14 01:21:00,
2013-02-13 20:32:00,30.0,28.0,-100.00,SW,221,2.0,4.0,92,0.00,,,0.07,0.000000,,2013-02-14 01:32:00,
2013-02-13 20:41:00,30.0,28.0,-100.00,SW,221,2.0,4.0,92,0.00,,,0.07,0.000000,,2013-02-14 01:41:00,
2013-02-13 20:51:00,30.0,28.0,-100.00,SW,221,2.0,4.0,92,0.00,,,0.07,0.000000,,2013-02-14 01:51:00,
2013-02-13 21:21:00,31.0,28.0,-100.00,SW,214,3.0,6.0,88,0.00,,,0.07,0.000000,,2013-02-14 02:21:00,
2013-02-13 21:32:00,31.0,28.0,-100.00,SW,214,3.0,6.0,88,0.00,,,0.07,0.000000,,2013-02-14 02:32:00,
2013-02-13 21:42:00,31.0,28.0,-100.00,SW,214,3.0,6.0,88,0.00,,,0.07,0.000000,,2013-02-14 02:42:00,
2013-02-13 21:51:00,31.0,28.0,-100.00,SW,214,3.0,6.0,88,0.00,,,0.07,0.000000,,2013-02-14 02:51:00,
2013-02-13 22:22:00,31.0,28.0,-100.00,SW,227,4.0,7.0,87,0.00,,,0.07,0.000000,,2013-02-14 03:22:00,
2013-02-13 22:32:00,31.0,28.0,-100.00,SW,227,4.0,7.0,87,0.00,,,0.07,0.000000,,2013-02-14 03:32:00,
2013-02-13 22:42:00,31.0,28.0,-100.00,SW,227,4.0,7.0,87,0.00,,,0.07,0.000000,,2013-02-14 03:42:00,
2013-02-13 22:52:00,31.0,28.0,-100.00,SW,227,4.0,7.0,87,0.00,,,0.07,0.000000,,2013-02-14 03:52:00,
2013-02-13 23:12:00,31.0,28.0,-100.00,SW,226,5.0,9.0,89,0.00,,,0.07,0.000000,,2013-02-14 04:12:00,
2013-02-13 23:21:00,31.0,28.0,-100.00,SW,226,5.0,9.0,89,0.00,,,0.07,0.000000,,2013-02-14 04:21:00,
2013-02-13 23:32:00,31.0,28.0,-100.00,SW,226,5.0,9.0,89,0.00,,,0.07,0.000000,,2013-02-14 04:32:00,
2013-02-13 23:42:00,31.0,28.0,-100.00,SW,226,5.0,9.0,89,0.00,,,0.07,0.000000,,2013-02-14 04:42:00,
2013-02-13 23:51:00,31.0,28.0,-100.00,SW,226,5.0,9.0,89,0.00,,,0.07,0.000000,,2013-02-14 04:51:00,